Regional Weather Roundup
Issued by NWS Northern Indiana

Home | Current Version | Previous Version | Text Only | Print | Product List | Glossary Off
Versions: 1 2 3 4 5 6 7 8 9 10 11 12 13 14 15 16 17 18 19 20 21 22 23 24 25 26 27 28 29 30 31 32 33 34 35 36 37 38 39 40 41 42 43 44 45 46 47 48 49 50

000
ASUS43 KIWX 181300
RWRIWX

KIWX WEATHER ROUNDUP
NATIONAL WEATHER SERVICE NORTHERN INDIANA
900 AM EDT SAT APR 18 2015

NOTE: "FAIR" INDICATES FEW OR NO CLOUDS BELOW 12,000 FEET WITH NO
SIGNIFICANT WEATHER AND/OR OBSTRUCTIONS TO VISIBILITY.

* THESE STATIONS ARE NOT UNDER NWS QUALITY CONTROL. THEY ALSO MAY NOT
  REPORT WEATHER SUCH AS PRECIPITATION OR FOG.

INZ001>027-181400-
NORTHERN INDIANA

CITY           SKY/WX    TMP DP  RH WIND       PRES   REMARKS
GARY*          MOSUNNY   63  45  51 CALM      30.05S
SOUTH BEND     SUNNY     62  46  55 CALM      30.06S
GOSHEN         SUNNY     59  49  69 CALM      30.05S
ANGOLA*        SUNNY     64  48  55 VRB3      30.05F
FORT WAYNE     MOSUNNY   61  49  64 CALM      30.06F
PERU/GRISSOM   SUNNY     61  49  65 SW2       30.05S

$$
INZ028>050-181400-
CENTRAL INDIANA

CITY           SKY/WX    TMP DP  RH WIND       PRES   REMARKS
LAFAYETTE      MOSUNNY   56  51  84 CALM      30.05S
KOKOMO*        SUNNY     59  48  67 CALM      30.06S
MUNCIE*        SUNNY     60  48  64 CALM      30.06S
INDIANAPOLIS   MOSUNNY   61  48  62 CALM      30.05S

$$
MIZ043>046-050>051-056>058-064>065-071>073-077>080-181400-
SOUTHWEST LOWER MICHIGAN

CITY           SKY/WX    TMP DP  RH WIND       PRES   REMARKS
BATTLE CREEK   MOSUNNY   62  47  57 W5        30.06R
BENTON HARBOR  MOSUNNY   58  47  66 NW5       30.05S
COLDWATER*     PTSUNNY   59  49  68 W3        30.06R
HILLSDALE*     PTSUNNY   63  47  55 W3        30.06R
HOLLAND        MOSUNNY   57  44  62 NE9       30.07R
GRAND RAPIDS   PTSUNNY   58  44  60 N6        30.07R
KALAMAZOO      MOSUNNY   57  49  74 S3        30.06R
STURGIS*       MOSUNNY   57  48  72 CALM      30.05S
THREE RIVERS*  PTSUNNY   57  48  72 CALM      30.05F

$$
OHZ001>008-015>018-024>025-181400-
NORTHWEST OHIO

CITY           SKY/WX    TMP DP  RH WIND       PRES   REMARKS
DEFIANCE       SUNNY     60  48  64 CALM      30.06S
FINDLAY        MOSUNNY   59  47  64 CALM      30.06R
TOLEDO EXPRESS MOSUNNY   61  46  57 CALM      30.06R
TOLEDO METCALF MOSUNNY   61  46  57 CALM      30.06S
LIMA           SUNNY     61  47  59 S3        30.07R

$$
AND FOR LAKE MICHIGAN COASTAL AND OPEN LAKE BUOY OBSERVATIONS

STATION/POSITION TEMP    WIND        PRES    VSBY  WAVE
                 AIR SEA DIR/SP/G                  HT/PER
                 (F)     (DEG/KT/KT) (MB)    (MI)  (FT/S)
CALUMET HARBOR    62     320/  2/  3   N/A
MICHIGAN CITY     62     200/  5/  6   N/A
BURNS HARBOR      62     220/  4/  5 1017.9S
SAINT JOSEPH      57     190/  7/ 11 1018.3R
MICHIGAN CITY     51 47                N/A           0

$$
&&



USA.gov is the U.S. government's official web portal to all federal, state and local government web resources and services.